Flag for U.S.A. Weather past 2 weeks in Augusta, Maine, U.S.A.

Now
40 °F

Passing clouds.


Feels Like: 33 °F
Forecast: 33 / 41 °F
Wind: 10 mph from West

Location: Augusta State Airport

Current Time: Dec 26, 2014 at 5:16:02 AM

Latest Report: Dec 26, 2014 at 4:53 AM


Visibility: 10 mi

Pressure: 29.90 "Hg

Humidity: 51%

Dew point: 23 °F

Location of AugustaLocation

Historic Weather in Augusta — Graph

°F

Augusta temperature yesterday

Maximum temperature yesterday: 49 °F (at 1:53 PM)
Minimum temperature yesterday: 34 °F (at 12:51 AM)
Average temperature yesterday: 41 °F

Past Weeks' High & Low Weather Summary

 TemperatureHumidityPressure
High49 °F (Dec 25, 1:53 PM)100% (Dec 11, 3:01 AM)30.45 "Hg (Dec 11, 3:01 AM)
Low18 °F (Dec 20, 6:53 AM)46% (Dec 25, 2:53 PM)29.40 "Hg (Dec 25, 9:00 AM)
Average31 °F87%29.96 "Hg
* Reported Dec 11 3:01 AM — Dec 26 3:53 AM, Augusta, Weather by CustomWeather, © 2014

Note: Actual official high and low records may vary slightly from our data, if they occured in-between our weather recording intervals... More about our weather records

Advertising

Augusta weather history for previous 24 hours

 ConditionsComfort  
Time TempWeatherWind HumidityBarometerVisibility
3:53 AM
Dec 26
40 °FClear.9 mph51%29.89 "Hg10 mi
2:53 AM40 °FPassing clouds.12 mph51%29.88 "Hg10 mi
1:53 AM41 °FOvercast.9 mph49%29.88 "Hg10 mi
12:53 AM40 °FPassing clouds.12 mph51%29.84 "Hg10 mi
11:53 PM
Dec 25
41 °FPassing clouds.14 mph51%29.81 "Hg10 mi
10:53 PM42 °FPassing clouds.7 mph51%29.79 "Hg10 mi
9:53 PM43 °FPassing clouds.15 mph47%29.75 "Hg10 mi
8:53 PM43 °FClear.17 mph49%29.72 "Hg10 mi
7:53 PM44 °FPassing clouds.16 mph47%29.69 "Hg10 mi
6:53 PM45 °FPassing clouds.7 mph49%29.65 "Hg10 mi
5:53 PM46 °FOvercast.18 mph48%29.62 "Hg10 mi
4:53 PM46 °FPassing clouds.16 mph46%29.60 "Hg10 mi
3:53 PM47 °FOvercast.12 mph48%29.55 "Hg10 mi
2:53 PM49 °FSunny.17 mph46%29.51 "Hg10 mi
1:53 PM49 °FPassing clouds.14 mph50%29.47 "Hg10 mi
12:53 PM47 °FSunny.12 mph74%29.45 "Hg10 mi
11:53 AM43 °FScattered clouds.12 mph97%29.43 "Hg10 mi
10:53 AM43 °FFog.8 mph100%29.41 "Hg3 mi
9:53 AM44 °FLight rain. Cloudy.8 mph96%29.41 "Hg10 mi
9:00 AM40 °FLight rain. Fog.8 mph100%29.40 "Hg6 mi
7:53 AM39 °FLight rain. Fog.9 mph96%29.43 "Hg0 mi
6:53 AM37 °FFog.6 mph96%29.45 "Hg0 mi
5:53 AM35 °FFog.3 mph96%29.45 "Hg0 mi
5:02 AM35 °FFog.No wind100%29.45 "Hg0 mi
Weather by CustomWeather, © 2014

See weather overviewHow to use our weather pages